Precipitable_Water
0.22 0.24 0.24 0.20 0.20 0.20 0.20 0.20 0.18 0.20 0.21 0.24 0.30 0.32 0.33 0.34 0.33 0.29 0.26 0.25 0.24 0.25 0.27 0.28 0.27 0.27 0.28 0.28 0.31 0.31 0.31 0.31 0.32 0.34 0.36 0.41 0.47 0.51 0.53 0.55 0.56 0.58 0.59 0.61
0.22 0.23 0.23 0.19 0.19 0.19 0.20 0.24 0.23 0.22 0.22 0.31 0.34 0.35 0.34 0.32 0.29 0.26 0.26 0.25 0.25 0.27 0.28 0.28 0.27 0.25 0.26 0.27 0.28 0.30 0.28 0.28 0.30 0.31 0.33 0.36 0.40 0.45 0.49 0.52 0.54 0.56 0.56 0.58
0.19 0.24 0.22 0.17 0.18 0.20 0.19 0.21 0.21 0.18 0.23 0.29 0.29 0.31 0.31 0.30 0.29 0.27 0.27 0.27 0.27 0.27 0.28 0.28 0.26 0.26 0.24 0.26 0.28 0.27 0.25 0.26 0.28 0.29 0.30 0.31 0.34 0.39 0.42 0.44 0.47 0.52 0.54 0.55
0.22 0.22 0.14 0.19 0.23 0.23 0.20 0.22 0.22 0.21 0.23 0.27 0.29 0.31 0.32 0.33 0.28 0.29 0.29 0.28 0.27 0.27 0.28 0.29 0.27 0.26 0.25 0.26 0.25 0.24 0.23 0.24 0.26 0.28 0.29 0.29 0.30 0.33 0.38 0.40 0.40 0.40 0.45 0.50
0.20 0.19 0.20 0.22 0.25 0.21 0.19 0.21 0.27 0.26 0.28 0.31 0.33 0.33 0.30 0.31 0.32 0.31 0.29 0.28 0.28 0.29 0.30 0.29 0.27 0.25 0.25 0.24 0.24 0.23 0.22 0.23 0.25 0.28 0.28 0.28 0.28 0.29 0.33 0.35 0.34 0.37 0.39 0.40
0.24 0.19 0.15 0.21 0.24 0.30 0.27 0.19 0.30 0.30 0.31 0.31 0.29 0.19 0.25 0.31 0.31 0.29 0.29 0.29 0.29 0.29 0.29 0.28 0.27 0.25 0.24 0.22 0.22 0.21 0.21 0.23 0.24 0.27 0.27 0.28 0.28 0.28 0.29 0.31 0.30 0.31 0.35 0.34
0.21 0.19 0.21 0.28 0.28 0.30 0.18 0.18 0.34 0.35 0.32 0.31 0.26 0.28 0.31 0.28 0.28 0.29 0.30 0.29 0.30 0.29 0.27 0.26 0.26 0.25 0.23 0.22 0.21 0.22 0.23 0.23 0.24 0.25 0.26 0.28 0.28 0.29 0.28 0.29 0.28 0.28 0.30 0.31
0.22 0.19 0.17 0.31 0.30 0.23 0.27 0.34 0.34 0.33 0.32 0.25 0.27 0.28 0.27 0.28 0.29 0.29 0.29 0.30 0.29 0.28 0.26 0.26 0.25 0.25 0.23 0.21 0.22 0.23 0.23 0.23 0.23 0.24 0.25 0.25 0.26 0.27 0.28 0.28 0.27 0.26 0.26 0.26
0.22 0.21 0.31 0.34 0.31 0.34 0.36 0.33 0.32 0.29 0.29 0.28 0.26 0.26 0.28 0.29 0.29 0.29 0.29 0.29 0.28 0.25 0.24 0.24 0.24 0.24 0.23 0.23 0.23 0.23 0.23 0.22 0.23 0.23 0.24 0.25 0.24 0.24 0.25 0.26 0.26 0.25 0.25 0.24
0.26 0.32 0.30 0.31 0.36 0.38 0.39 0.38 0.35 0.31 0.29 0.28 0.27 0.28 0.28 0.28 0.29 0.28 0.28 0.26 0.25 0.24 0.24 0.23 0.24 0.24 0.25 0.24 0.25 0.24 0.22 0.22 0.23 0.22 0.22 0.23 0.23 0.24 0.24 0.24 0.24 0.23 0.23 0.23
0.27 0.32 0.34 0.36 0.38 0.39 0.39 0.36 0.30 0.29 0.28 0.27 0.28 0.27 0.27 0.27 0.27 0.27 0.25 0.24 0.24 0.24 0.24 0.23 0.24 0.24 0.23 0.24 0.25 0.23 0.22 0.23 0.22 0.23 0.22 0.22 0.23 0.22 0.22 0.24 0.24 0.23 0.23 0.22
0.19 0.30 0.30 0.32 0.38 0.39 0.34 0.31 0.30 0.27 0.26 0.27 0.28 0.27 0.27 0.26 0.26 0.25 0.24 0.24 0.24 0.24 0.23 0.23 0.22 0.22 0.22 0.23 0.23 0.22 0.21 0.21 0.21 0.21 0.22 0.22 0.22 0.21 0.23 0.23 0.24 0.24 0.24 0.22
0.27 0.33 0.35 0.36 0.37 0.36 0.33 0.30 0.28 0.27 0.26 0.27 0.28 0.26 0.26 0.26 0.26 0.26 0.25 0.23 0.23 0.23 0.23 0.22 0.21 0.21 0.22 0.22 0.21 0.19 0.19 0.20 0.20 0.20 0.21 0.20 0.20 0.20 0.19 0.21 0.22 0.23 0.22 0.22
0.34 0.33 0.30 0.34 0.31 0.32 0.30 0.27 0.28 0.29 0.29 0.28 0.27 0.28 0.28 0.27 0.26 0.24 0.22 0.23 0.24 0.23 0.22 0.20 0.19 0.18 0.19 0.19 0.17 0.17 0.18 0.18 0.19 0.19 0.20 0.20 0.19 0.20 0.20 0.19 0.18 0.19 0.21 0.21
0.32 0.32 0.31 0.32 0.29 0.27 0.28 0.28 0.29 0.28 0.28 0.27 0.28 0.27 0.27 0.25 0.24 0.23 0.24 0.24 0.23 0.21 0.18 0.17 0.16 0.16 0.16 0.16 0.15 0.16 0.16 0.17 0.18 0.18 0.19 0.20 0.19 0.19 0.20 0.19 0.18 0.19 0.20 0.20
0.29 0.29 0.29 0.27 0.27 0.28 0.27 0.28 0.28 0.28 0.28 0.27 0.27 0.26 0.26 0.25 0.24 0.22 0.22 0.22 0.18 0.15 0.15 0.14 0.14 0.14 0.14 0.14 0.15 0.15 0.16 0.16 0.16 0.17 0.17 0.18 0.18 0.19 0.19 0.18 0.18 0.18 0.18 0.19
0.25 0.24 0.26 0.25 0.25 0.25 0.27 0.28 0.28 0.28 0.28 0.28 0.27 0.25 0.24 0.22 0.20 0.21 0.21 0.18 0.15 0.13 0.13 0.14 0.13 0.13 0.14 0.15 0.15 0.15 0.15 0.15 0.15 0.16 0.16 0.17 0.17 0.17 0.18 0.18 0.18 0.18 0.18 0.19
0.29 0.28 0.28 0.27 0.26 0.27 0.28 0.28 0.28 0.28 0.29 0.26 0.24 0.23 0.21 0.20 0.20 0.18 0.15 0.14 0.13 0.12 0.13 0.14 0.14 0.13 0.14 0.15 0.15 0.15 0.15 0.14 0.14 0.15 0.16 0.16 0.16 0.17 0.17 0.17 0.17 0.17 0.17 0.18
0.29 0.28 0.28 0.28 0.28 0.28 0.27 0.27 0.29 0.28 0.26 0.24 0.23 0.21 0.22 0.21 0.15 0.14 0.13 0.13 0.11 0.10 0.12 0.14 0.13 0.13 0.14 0.15 0.15 0.15 0.15 0.13 0.14 0.14 0.15 0.15 0.15 0.16 0.16 0.16 0.16 0.16 0.16 0.17
0.29 0.29 0.29 0.28 0.29 0.28 0.29 0.30 0.28 0.26 0.24 0.24 0.22 0.21 0.15 0.13 0.13 0.13 0.13 0.12 0.12 0.12 0.14 0.14 0.13 0.13 0.14 0.15 0.14 0.15 0.14 0.13 0.13 0.14 0.14 0.14 0.14 0.15 0.15 0.15 0.15 0.15 0.16 0.16
0.27 0.28 0.28 0.28 0.28 0.29 0.29 0.28 0.26 0.23 0.24 0.23 0.19 0.14 0.13 0.13 0.14 0.13 0.12 0.11 0.12 0.14 0.14 0.14 0.13 0.13 0.14 0.14 0.14 0.13 0.13 0.12 0.13 0.13 0.14 0.14 0.14 0.14 0.14 0.14 0.15 0.14 0.15 0.15
0.27 0.27 0.26 0.26 0.27 0.27 0.27 0.26 0.25 0.24 0.21 0.16 0.13 0.12 0.12 0.12 0.13 0.13 0.14 0.12 0.13 0.14 0.14 0.14 0.13 0.13 0.13 0.13 0.13 0.13 0.13 0.12 0.13 0.13 0.13 0.14 0.14 0.14 0.14 0.14 0.14 0.14 0.14 0.14
0.25 0.25 0.25 0.26 0.25 0.25 0.26 0.25 0.24 0.20 0.15 0.12 0.11 0.12 0.12 0.13 0.13 0.11 0.11 0.14 0.14 0.13 0.14 0.13 0.12 0.12 0.12 0.12 0.12 0.12 0.12 0.11 0.12 0.12 0.13 0.14 0.14 0.14 0.14 0.14 0.14 0.14 0.14 0.14
0.25 0.25 0.25 0.26 0.26 0.25 0.24 0.24 0.20 0.15 0.13 0.12 0.12 0.13 0.13 0.12 0.13 0.14 0.15 0.14 0.14 0.13 0.13 0.13 0.12 0.11 0.11 0.11 0.11 0.11 0.11 0.11 0.11 0.12 0.12 0.13 0.13 0.13 0.14 0.14 0.14 0.14 0.14 0.13
0.26 0.26 0.26 0.26 0.25 0.24 0.25 0.22 0.15 0.13 0.13 0.13 0.14 0.15 0.15 0.15 0.13 0.14 0.14 0.14 0.13 0.13 0.12 0.13 0.12 0.11 0.11 0.11 0.10 0.10 0.10 0.10 0.10 0.11 0.11 0.11 0.12 0.12 0.13 0.14 0.14 0.14 0.14 0.14
0.27 0.27 0.27 0.26 0.26 0.26 0.25 0.19 0.13 0.13 0.13 0.13 0.15 0.16 0.16 0.15 0.15 0.15 0.14 0.13 0.13 0.13 0.12 0.12 0.13 0.12 0.12 0.11 0.11 0.11 0.11 0.11 0.10 0.10 0.10 0.10 0.11 0.11 0.11 0.12 0.13 0.13 0.14 0.14
0.28 0.27 0.26 0.27 0.29 0.28 0.25 0.17 0.14 0.13 0.14 0.15 0.14 0.16 0.15 0.15 0.14 0.14 0.13 0.13 0.13 0.13 0.12 0.13 0.13 0.13 0.13 0.12 0.12 0.12 0.12 0.11 0.11 0.11 0.10 0.10 0.10 0.10 0.10 0.11 0.11 0.12 0.12 0.13
Wind_Speed
21 20 21 22 22 23 24 24 22 22 24 23 22 21 19 19 21 22 23 24 25 26 27 29 30 29 30 32 28 25 27 28 28 29 29 28 26 25 21 19 17 15 16 15
21 21 22 25 25 24 25 23 24 22 21 19 17 17 18 19 20 21 23 23 24 25 26 28 28 28 29 28 25 25 27 27 27 27 27 27 26 23 20 17 17 16 15 14
21 19 20 26 23 25 23 21 19 19 19 17 17 18 18 18 19 21 22 23 23 24 25 25 26 27 28 25 25 26 27 27 26 26 26 25 25 22 20 18 17 16 15 13
19 17 21 22 23 21 20 19 19 16 15 15 15 15 16 17 19 21 22 22 23 23 22 24 25 26 26 25 25 26 26 27 27 26 25 24 23 22 20 18 18 16 15 15
17 19 23 21 17 15 15 15 15 11 11 12 12 13 16 17 19 20 20 21 21 21 21 23 24 25 24 25 26 26 26 26 26 26 25 24 23 21 20 18 18 16 16 16
16 17 18 18 18 14 12 15 13 12 13 12 15 16 18 18 19 19 18 19 20 20 21 23 24 24 24 25 26 26 26 26 26 25 24 23 23 21 20 18 18 17 16 15
16 16 18 17 14 12 12 14 12 11 12 14 15 17 17 17 17 18 18 19 20 21 21 22 24 23 24 25 25 26 25 24 24 24 24 23 22 20 19 18 18 17 16 15
14 15 18 15 13 13 13 10 11 11 12 13 14 14 15 16 17 18 19 20 21 21 22 22 23 23 23 24 25 25 25 24 24 23 23 22 22 21 20 19 18 17 17 16
14 15 15 12 13 11 11 10 11 11 12 13 13 14 15 16 17 18 19 20 21 21 22 22 23 23 23 24 25 25 25 24 24 23 23 22 22 21 20 19 18 18 17 16
12 13 12 10 9 10 10 10 11 12 12 13 14 15 15 17 18 19 20 20 21 21 21 22 23 23 24 25 25 25 25 24 24 24 23 22 22 21 20 19 19 18 17 17
11 10 8 9 10 10 10 10 11 12 13 14 14 15 16 17 18 19 19 20 20 20 21 22 23 24 25 25 25 26 26 25 25 24 23 23 22 21 20 19 19 18 18 19
13 14 11 12 12 11 11 12 12 11 12 13 14 15 16 17 18 18 19 20 19 20 21 22 24 25 26 26 26 27 26 26 26 25 25 24 23 22 21 20 20 19 19 19
9 10 9 9 9 9 10 10 10 11 12 13 14 14 15 15 16 17 18 18 19 21 22 24 25 26 27 28 28 28 28 27 27 27 26 25 25 24 23 23 21 21 21 21
7 6 5 8 9 8 8 8 9 10 12 13 12 12 12 13 15 16 17 18 20 21 23 25 26 28 29 29 30 30 29 29 29 29 28 27 27 26 24 24 23 23 22 22
7 6 6 6 6 6 7 8 9 10 10 10 10 11 11 12 14 15 17 19 20 22 25 26 27 28 30 30 31 31 31 32 32 31 30 30 29 28 26 26 25 24 23 23
4 4 4 5 6 8 8 9 8 8 8 8 9 10 11 12 14 16 18 20 21 23 25 26 27 29 31 31 32 32 33 33 32 32 31 31 30 29 28 27 26 25 24 24
4 5 6 6 7 8 8 8 8 7 7 7 8 9 11 14 15 17 19 19 20 23 25 26 28 31 32 33 34 34 34 34 33 32 31 31 30 29 28 28 27 26 25 24
6 6 6 6 6 6 7 6 5 5 6 7 9 11 13 14 15 17 17 19 22 24 26 27 30 32 33 35 36 34 33 32 31 30 29 29 29 29 28 27 26 26 26 26
5 5 5 5 5 5 5 5 5 6 7 8 10 12 13 14 15 17 17 19 22 25 27 28 31 32 35 36 35 33 30 29 27 26 26 26 26 26 27 27 26 26 25 25
4 4 4 4 5 6 6 7 7 8 9 9 10 11 12 14 15 17 17 19 23 25 27 29 31 33 35 36 34 31 29 28 26 25 24 24 23 23 23 24 25 25 25 24
5 5 5 6 6 7 8 8 8 8 8 9 9 10 12 14 15 15 18 21 24 26 27 30 32 33 34 35 33 31 28 27 25 24 24 23 23 22 21 21 21 22 23 23
7 6 6 6 7 7 8 7 7 7 8 8 9 10 12 14 14 16 19 21 24 26 28 30 32 33 34 35 33 30 28 26 25 24 23 23 22 21 20 19 19 19 20 20
6 6 6 7 7 8 8 8 8 8 7 8 9 10 12 13 15 17 20 22 24 27 28 30 32 33 34 34 33 30 28 26 25 23 23 22 21 21 20 19 18 17 17 17
7 7 8 8 8 9 9 10 9 9 9 9 9 11 12 14 16 18 20 22 25 27 28 30 32 33 34 34 33 31 28 26 25 23 22 22 21 20 19 18 17 17 16 15
8 8 9 9 10 10 10 10 10 10 10 11 12 12 14 15 17 19 21 23 25 27 29 30 32 33 34 34 33 31 28 26 25 23 22 21 21 20 19 18 17 17 16 15
10 10 11 11 11 11 11 11 12 12 12 13 13 14 14 16 18 19 22 23 25 27 29 30 32 33 34 34 33 31 29 27 25 23 22 21 21 20 19 18 18 17 16 15
11 11 12 12 13 13 12 12 12 13 13 13 13 14 15 17 18 20 22 24 26 28 30 31 32 33 34 34 34 32 29 27 26 24 22 22 21 20 20 19 18 18 17 16
Wind_Direction
258 258 265 266 264 260 261 267 266 272 267 266 263 267 272 282 289 295 300 305 308 312 315 318 320 322 323 324 324 323 325 326 328 330 331 332 331 330 327 325 325 309 302 297
260 259 262 266 264 263 264 266 267 271 273 270 262 266 274 282 290 297 302 305 309 313 315 319 322 323 325 326 324 325 326 327 328 331 334 336 335 334 335 332 328 325 312 299
262 259 267 269 261 259 264 262 264 267 268 259 262 266 274 283 293 297 301 305 308 311 314 319 323 325 327 327 325 327 328 327 328 330 333 337 339 338 336 334 335 335 337 325
256 259 261 274 267 263 259 266 262 267 256 256 262 271 279 287 293 298 301 305 308 310 313 319 323 326 328 328 326 327 328 330 330 329 331 333 337 339 338 333 334 334 332 332
251 256 271 277 268 256 253 267 268 251 253 251 254 273 286 290 295 299 302 306 308 309 312 319 323 324 326 328 328 328 327 328 329 330 330 330 332 335 336 336 337 337 336 338
255 257 262 270 259 254 255 263 268 249 253 252 261 280 285 292 298 304 307 308 308 309 312 319 320 322 324 327 329 330 329 328 328 330 330 329 330 330 331 330 334 334 336 336
249 256 267 259 251 253 251 260 250 250 257 267 277 282 286 293 302 304 306 309 309 309 311 316 318 319 322 325 327 328 329 329 330 331 331 330 329 328 328 327 330 330 331 333
248 255 260 249 254 249 251 250 248 256 266 276 280 285 291 297 300 304 307 309 310 308 308 313 317 318 319 322 324 325 326 327 327 329 331 331 330 328 326 325 324 325 327 328
241 253 257 255 248 246 248 244 254 267 277 282 285 289 293 296 301 305 307 308 310 309 309 311 314 317 318 319 320 322 324 324 325 324 326 328 329 328 325 324 323 322 321 321
245 257 246 236 240 243 246 254 265 278 282 284 288 291 294 296 299 304 307 309 310 310 310 312 314 315 316 318 317 318 320 321 321 321 322 323 324 325 325 323 321 321 320 319
247 237 231 242 238 241 254 265 272 281 286 287 291 294 294 297 300 303 307 310 312 312 313 315 316 315 317 316 316 315 316 316 317 317 317 317 318 319 320 321 323 321 320 319
246 230 243 238 243 252 263 273 275 283 293 296 295 295 297 299 302 304 307 309 311 314 315 318 319 318 318 317 315 314 313 312 312 312 312 312 311 311 311 312 314 315 317 318
241 230 238 224 239 258 269 274 277 285 290 294 297 298 301 303 306 309 311 312 313 314 315 317 317 318 318 317 316 313 311 310 309 308 306 306 306 305 303 305 305 307 309 311
200 200 223 234 257 260 267 273 285 293 296 298 300 305 308 311 313 314 314 314 316 316 317 316 317 318 317 316 315 313 310 308 307 304 302 301 300 299 297 298 297 298 300 303
216 253 242 243 249 265 270 278 289 294 297 303 306 311 313 317 318 317 318 319 320 321 321 320 320 320 319 317 315 312 309 307 305 302 299 298 296 294 292 294 294 293 294 295
216 224 234 241 258 272 280 287 292 292 294 301 308 313 314 317 317 319 319 320 321 322 323 323 324 323 322 320 318 314 311 309 306 302 298 296 294 291 289 289 290 290 290 292
213 251 255 263 270 283 286 289 289 286 289 299 308 313 315 317 320 321 322 323 326 327 327 327 326 327 325 324 321 317 313 309 306 301 298 295 293 291 288 286 286 286 286 287
248 252 259 260 267 279 288 287 285 283 291 301 309 313 317 320 321 323 325 327 330 332 331 330 330 331 330 329 327 323 320 317 312 307 301 297 293 289 287 286 286 284 283 284
246 256 262 269 276 279 280 279 282 287 295 302 308 312 315 319 322 325 327 331 333 333 334 334 334 334 334 334 332 329 327 325 322 318 313 307 301 294 289 286 284 283 284 283
254 259 264 277 281 279 279 280 280 289 294 300 309 315 319 322 326 329 329 333 335 335 335 337 337 337 337 337 336 334 331 329 327 325 322 319 313 306 298 291 285 283 281 282
251 253 264 274 284 284 282 278 281 286 292 300 308 314 320 325 328 331 333 334 335 337 337 339 340 340 340 340 340 337 335 334 332 330 328 325 322 317 311 304 295 289 283 281
253 258 263 274 282 284 281 275 276 283 291 298 308 315 323 329 331 333 334 336 337 338 338 340 341 342 342 343 342 340 338 337 335 333 332 331 329 326 320 314 309 301 293 286
249 254 263 276 281 281 278 273 275 278 283 296 305 315 323 327 330 332 334 336 338 340 340 341 342 343 343 344 344 342 340 339 337 336 335 334 333 331 328 324 318 314 306 298
251 258 270 278 283 285 280 276 270 271 279 292 304 312 321 325 328 332 334 336 338 340 341 341 343 344 344 345 344 343 341 339 338 336 336 336 335 335 333 331 327 322 317 310
255 262 270 275 282 285 283 273 268 271 275 287 297 305 313 321 327 329 332 335 337 339 341 341 342 343 344 345 344 343 341 339 337 336 336 336 337 336 333 332 331 328 324 317
259 267 272 275 282 285 284 272 273 272 276 286 294 302 310 317 322 327 330 333 335 338 339 341 341 342 342 343 342 341 339 338 337 335 334 334 334 335 335 333 331 329 327 323
268 269 274 277 282 283 280 275 276 277 278 284 291 298 306 313 319 323 328 331 334 336 338 338 339 340 340 340 339 338 336 335 333 331 329 330 330 329 330 330 328 327 326 324